ELEKTRON 1 DEB *, 18589

Orbit data source: Space-Track

ELEKTRON 1 DEB *, 18589 is space debris in LEO originally from a launch on Thu, 30 Jan 1964 UTC launched from the Tyuratam Missile And Space Complex (TTMTR). Debris objects in space refer to the collection of defunct objects orbiting the Earth. Examples of debris include non-operational satellites, rocket bodies, and fragments generated from explosions, collisions, or faulty payload assembly.

Loading next visibility...
Identifier
18589, 1964-006N
Orbit
LEO
Country
Flag of CISCIS
Related business
Manufacturer
Unknown
Mission
Spacecraft
Bus & Motor
Unknown
Mass
Unknown
Launch date (UTC)
1964-01-30 (62 years ago)
Launch vehicle
Unknown
Launch site
Tyuratam Missile And Space Complex (TTMTR)
Object type
Payload
Rocket body
Debris
Shape & HBR
Unknown shape, 0.1 m
Radar Cross Section
Medium (>0.1 m² and <1 m²)

Expand to show TLE details & history
Last TLE update: 23 hours ago

TLE from 23 hours ago
0 ELEKTRON 1 DEB *
1 18589U 64006N   26177.47433750 -.00008106  00000-0 -33714-1 0  9999
2 18589  58.9017 302.3266 2073899  42.7285 331.7364  9.97938267439914
Epoch: 2026-06-26T11:23Z
TLE epoch observation values (Epoch: 2026-06-26T11:23:02.759Z)
Latitude
0.00002°
Longitude
-143.03722°
Altitude
1,189.54 km
Speed
7.851 km/s
True Right ascension
20h 09m 18s
True Declination
0° 00' 00"
Sunlit
Object was in full shadow at epoch
Visualization orbit readout
Latitude
Unknown
Longitude
Unknown
Altitude
Unknown
Speed
Unknown
Apparent Right ascension
Unknown
Apparent Declination
Unknown
Sunlit
N/A
Visualization observer readout
Local Sidereal Time
21:54:25
Azimuth
Unknown
Elevation
Unknown
Doppler factor
Unknown
Orbital elements
Apogee altitude
4,624.31 km
Perigee altitude
844.593 km
Semi-major axis
9,112.589 km
Eccentricity
0.20739
Inclination
58.9017°
RAAN
302.3266°
Arg. of periapsis
42.7285°
True anomaly
317.36072°
Mean anomaly
331.7364°
Eccentric anomaly
324.90465°
Mean motion
2.49506 °/min
Orbital period
144.29 mins
BSTAR
-0.033714
Loading maneuver chart data...
Computing Atmospheric mass density...

Documentation

Showing up to 5 results
|